Regional Weather Roundup
Issued by NWS Upton, NY

Current Version | Previous Version | Text Only | Print | Product List | Glossary On
Versions: 1 2 3 4 5 6 7 8 9 10 11 12 13 14 15 16 17 18 19 20 21 22 23 24 25 26 27 28 29 30 31 32 33 34 35 36 37 38 39 40 41 42 43 44 45 46 47 48 49 50
000
ASUS41 KOKX 272205
RWROKX

REGIONAL WEATHER ROUNDUP
NATIONAL WEATHER SERVICE NEW YORK NY
600 PM EDT SUN JUL 27 2014

NOTE: "FAIR" INDICATES FEW OR NO CLOUDS BELOW 12,000 FEET WITH NO
SIGNIFICANT WEATHER AND/OR OBSTRUCTIONS TO VISIBILITY.

NYZ071-072-176-178-NJZ106-104-272300-
NEW YORK CITY METRO AREA


CITY           SKY/WX    TMP DP  RH WIND       PRES   REMARKS
CENTRAL PARK   MOSUNNY   85  64  49 SW8       29.71F
LAGUARDIA APRT PTSUNNY   87  64  46 SW8       29.67F
KENNEDY INTL   MOSUNNY   82  70  66 S13       29.69F
NEWARK/LIBERTY PTSUNNY   88  64  44 W14       29.68F
BRNX BOT. GARD   N/A     86  64  48 W2        29.70R
TETERBORO      MOSUNNY   88  64  44 W8        29.66F
$$

NYZ177-179-078>081-272300-
LONG ISLAND NEW YORK

CITY           SKY/WX    TMP DP  RH WIND       PRES   REMARKS
FARMINGDALE    SUNNY     80  70  71 SW10      29.69F
ISLIP          MOSUNNY   81  70  69 S13       29.69F
SHIRLEY        SUNNY     78  70  76 S14       29.71F
WESTHAMPTON    MOSUNNY   77  70  79 SW12G23   29.72F
MONTAUK POINT    N/A     76  70  82 SW9       29.72F
$$

NYZ052-065-067-272300-
HUDSON VALLEY

CITY           SKY/WX    TMP DP  RH WIND       PRES   REMARKS
WHITE PLAINS   MOSUNNY   83  69  62 S6        29.69S
NEWBURGH       MOSUNNY   84  68  58 SW12      29.68F
MONTGOMERY     SUNNY     86  64  47 SW9       29.66F
POUGHKEEPSIE   SUNNY     85  69  58 SW7       29.64F
ALBANY         MOSUNNY   77  68  73 VRB3      29.65F
$$

NJZ001-105-106-008-010-013-015-019>022-104-272300-
NEW JERSEY

CITY           SKY/WX    TMP DP  RH WIND       PRES   REMARKS
NEWARK/LIBERTY PTSUNNY   88  64  44 W14       29.68F
TETERBORO      MOSUNNY   88  64  44 W8        29.66F
CALDWELL       SUNNY     87  65  47 VRB6      29.68F
MORRISTOWN     MOSUNNY   88  64  45 W10       29.68
SOMERVILLE     MOSUNNY   87  65  47 SW3       29.66F
LINDEN         FAIR      90  63  41 W9        29.69F HX  90
SUSSEX         SUNNY     86  65  49 SW7       29.68F
ANDOVER          N/A     85  64  49 SW5       29.70F
TRENTON        MOSUNNY   88  65  46 W7        29.68F HX  90
MILLVILLE      MOSUNNY   82  71  69 SW6       29.73F
ATLANTIC CITY  MOSUNNY   82  71  69 SW13      29.72F
WRIGHTSTOWN    MOSUNNY   87  70  56 S7        29.67F HX  92
TOMS RIVER     MOSUNNY   84  72  65 S9        29.70F
BELMAR         MOSUNNY   88  70  55 SW5       29.69F HX  92
$$

PAZ047>061-062-071-272300-
EASTERN PENNSYLVANIA

CITY           SKY/WX    TMP DP  RH WIND       PRES   REMARKS
PHILADELPHIA   PTSUNNY   87  70  56 S10       29.69F HX  92
ALLENTOWN      SUNNY     86  64  47 SW6       29.68F
SCRANTON       MOSUNNY   87  59  38 W12G17    29.68F
$$

CTZ002-004>006-009-010-012-RIZ004-006-007-MAZ004-011-015-272300-
SOUTHERN NEW ENGLAND
 IN CT

CITY           SKY/WX    TMP DP  RH WIND       PRES   REMARKS
BRADLEY INTL   MOSUNNY   84  68  58 SW12      29.66S
HARTFORD       MOSUNNY   82  69  64 S9        29.66F
DANBURY        SUNNY     81  67  62 S7        29.69F
WTRBRY/OXFORD  PTSUNNY   81  68  65 SW6       29.73F
BRIDGEPORT     MOSUNNY   81  71  71 S16       29.68F
MERIDEN        MOSUNNY   82  70  66 S9        29.68F
NEW HAVEN      SUNNY     81  72  74 S8        29.69F
CHESTER        MOCLDY    77  72  83 SW8       29.72R
GROTON         PTSUNNY   74  70  87 SW10      29.70S
WILLIMANTIC    PTSUNNY   81  69  67 S12       29.69F

 IN RI

CITY           SKY/WX    TMP DP  RH WIND       PRES   REMARKS
PROVIDENCE     CLOUDY    75  69  81 S10       29.71F
BLOCK ISLAND   MOSUNNY   73  68  83 S10       29.72F
WESTERLY       MOSUNNY   76  69  79 S12       29.71F

 IN MA

CITY           SKY/WX    TMP DP  RH WIND       PRES   REMARKS
BOSTON         PTSUNNY   75  70  84 S12       29.68F
WORCESTER      MOSUNNY   75  68  78 S10       29.72F
WESTFIELD      MOSUNNY   81  68  64 S10       29.64F
PROVINCETOWN   PTSUNNY   73  70  88 S13       29.73F
NANTUCKET      MOSUNNY   71  66  84 S10       29.75F
$$

ANZ330-335-338-340-345-350-353-355-272300-
COASTAL MARINE OBSERVATIONS


STATION/POSITION TIME  SKY/WX   TEMP    WIND        PRES    VSBY  WAVE
                                AIR SEA DIR/SP/G                  HT/PER
                 (UTC)          (F)     (DEG/KT/KT) (MB)    (MI)  (FT/S)
NY HARB ENTRANCE NOT AVBL
4S FIRE IS       NOT AVBL
23SW MTP         2200            75 71              1005.5          5/ 6
HUDSON CANYON    2200            76 74  230/ 16/ 19 1006.8          4/ 6
EXECUTION ROCKS  2200            81 72  200/ 12/ 14   N/A
WESTERN LI SOUND 2200            81     190/ 10/ 12   N/A           1
CENTRAL LI SOUND 2100            76 73  200/ 14/ 16   N/A           1/ 3
EASTERN LI SOUND 2100            73 68  200/ 10/ 12   N/A
ROBBINS REEF     2200            81     200/  7/ 11   N/A
$$


>>>>>>>>>>>>>>>>>>>>>>>>>>>> KEY <<<<<<<<<<<<<<<<<<<<<<<<<<<
>                                                          <
>     SKY/WX - SKY CONDITION/PRESENT WEATHER               <
>     TMP    - TEMPERATURE IN FAHRENHEIT                   <
>     DP     - DEWPOINT IN FAHRENHEIT                      <
>     RH     - RELATIVE HUMIDITY IN PERCENT                <
>     WIND   - DIRECTION AND SPEED IN MPH                  <
>     PRES   - MEAN SEA LEVEL PRESSURE IN INCHES OF HG     <
>     WCI    - WIND CHILL INDEX                            <
>     VSB    - VISIBILITY IN MILES                         <
>     HX     - HEAT INDEX                                  <
>     TC     - TEMPERATURE IN CELSIUS                      <
>     VRB    - VARIABLE WIND DIRECTION                     <
>                                                          <
>>>>>>>>>>>>>>>>>>>>>>>>>>>> KEY <<<<<<<<<<<<<<<<<<<<<<<<<<<




USA.gov is the U.S. government's official web portal to all federal, state and local government web resources and services.